This is the latest recevied weather packets stored in our database for station/object KD8BMB. If no packets are shown the sender has not sent any weather packets the latest 10 day(s).
| Time | Temp. | Humidity | Pressure | Rain* | Wind** | Luminosity | Snow |
|---|---|---|---|---|---|---|---|
| 1777296471 | 13.89° C | 70% | 1019.3 hPa | 0 mm | - | 280 W/m² | - |
| 1777296168 | 13.89° C | 71% | 1019.1 hPa | 0 mm | - | 301 W/m² | - |
| 1777295864 | 13.89° C | 71% | 1019.1 hPa | 0 mm | - | 296 W/m² | - |
| 1777295561 | 13.89° C | 72% | 1019.2 hPa | 0 mm | - | 270 W/m² | - |
| 1777295259 | 13.89° C | 72% | 1019.2 hPa | 0 mm | - | 315 W/m² | - |
| 1777294957 | 13.33° C | 75% | 1019.4 hPa | 0 mm | - | 307 W/m² | - |
| 1777294652 | 12.22° C | 75% | 1019.6 hPa | 0 mm | - | 234 W/m² | - |
| 1777294348 | 11.67° C | 77% | 1019.7 hPa | 0 mm | - | 221 W/m² | - |
| 1777294045 | 11.67° C | 77% | 1019.7 hPa | 0 mm | - | 187 W/m² | - |
| 1777293743 | 11.67° C | 78% | 1019.2 hPa | 0 mm | - | 173 W/m² | - |
| 1777293436 | 11.67° C | 77% | 1019.3 hPa | 0 mm | - | 176 W/m² | - |
| 1777293133 | 11.67° C | 77% | 1019.3 hPa | 0 mm | - | 191 W/m² | - |
| 1777292832 | 11.11° C | 78% | 1019.4 hPa | 0 mm | - | 182 W/m² | - |
| 1777292528 | 10.56° C | 79% | 1019.6 hPa | 0 mm | - | 175 W/m² | - |
| 1777292225 | 11.11° C | 78% | 1019.9 hPa | 0 mm | - | 169 W/m² | - |
| 1777291921 | 10.56° C | 79% | 1019.9 hPa | 0 mm | - | 140 W/m² | - |
| 1777291618 | 10° C | 80% | 1019.8 hPa | 0 mm | - | 117 W/m² | - |
| 1777291315 | 9.44° C | 81% | 1019.7 hPa | 0 mm | - | 106 W/m² | - |
| 1777291011 | 9.44° C | 81% | 1019.5 hPa | 0 mm | - | 72 W/m² | - |
| 1777290708 | 9.44° C | 81% | 1019.8 hPa | 0 mm | - | 63 W/m² | - |
| 1777290404 | 8.89° C | 82% | 1019.7 hPa | 0 mm | - | 62 W/m² | - |
| 1777290099 | 8.89° C | 82% | 1019.6 hPa | 0 mm | - | 58 W/m² | - |
| 1777289797 | 8.89° C | 82% | 1019.4 hPa | 0 mm | - | 58 W/m² | - |
| 1777289493 | 8.33° C | 83% | 1019.7 hPa | 0 mm | - | 52 W/m² | - |
| 1777289189 | 8.33° C | 84% | 1019.7 hPa | 0 mm | - | 45 W/m² | - |
* Rain latest hour (hover to see other rain measurements)
** Current wind speed in m/s (hover to see current wind gust speed)